Wind_Speed
36 35 35 35 35 34 34 33 31 30 28 27 28 30 31 33 33 34 34 35 35 35 35 34 33 32 31 30 30 30 30 29 28 28 30 31 29 26 22 20 21 25 27 29 30 31 33 34 35 35 35 37 38 40 41 41 41 41 41 41 42 43 44
37 36 36 36 35 35 35 36 35 34 34 32 31 31 32 33 33 34 35 35 35 34 34 34 33 32 32 32 32 31 31 29 27 27 28 28 26 24 21 19 21 26 30 31 32 34 36 36 36 36 35 35 36 36 36 36 38 39 40 42 43 44 45
37 36 36 35 35 35 35 36 36 36 36 35 35 35 34 34 34 34 35 35 35 35 34 34 33 33 33 33 33 33 32 30 28 27 27 27 26 25 23 21 21 25 30 33 35 35 36 36 36 35 34 32 31 31 30 31 32 33 34 35 36 38 39
36 35 35 35 35 35 35 35 36 36 35 36 36 36 36 36 36 36 37 37 37 36 36 35 34 34 35 35 35 35 34 33 31 30 29 29 28 28 27 25 24 25 27 31 34 35 36 35 34 33 31 30 29 28 28 28 29 29 30 30 31 31 32
34 33 33 33 33 33 34 35 35 35 35 35 35 35 35 35 35 36 36 37 37 36 36 36 36 36 36 36 36 36 36 35 34 33 33 33 32 32 31 29 28 28 28 29 31 32 32 32 31 31 30 29 28 28 28 28 28 28 28 28 28 28 28
31 32 32 32 31 31 32 33 34 34 33 33 33 32 32 33 33 34 34 35 35 35 35 36 36 36 35 35 35 35 36 36 36 36 35 35 35 35 34 34 33 32 31 31 31 31 31 31 31 30 30 29 29 29 29 29 29 29 29 28 28 28 27
29 30 31 31 31 31 31 31 32 32 31 31 30 30 30 30 31 31 32 33 33 34 34 34 34 34 33 33 32 32 33 34 35 36 37 37 37 36 36 36 36 35 34 33 31 30 30 31 31 31 31 30 30 30 30 30 31 31 30 29 29 28 27
31 33 34 33 32 31 31 32 33 33 32 31 31 31 31 31 31 31 31 32 32 32 33 33 33 33 32 32 31 32 32 33 34 35 36 37 38 38 38 37 37 37 36 34 32 32 31 31 32 33 33 32 32 31 31 32 32 32 32 32 31 30 29
35 38 38 37 36 34 33 33 34 34 34 33 32 32 32 32 32 32 32 33 33 32 32 33 33 33 33 33 33 33 33 33 34 34 34 36 37 39 40 40 39 39 38 37 36 35 34 34 33 34 34 34 33 33 33 33 34 34 34 34 34 33 31
40 43 43 41 39 38 37 36 36 36 36 35 35 34 34 34 34 33 33 34 34 35 35 35 35 36 36 36 36 36 35 35 34 34 35 35 36 38 40 42 42 41 41 41 40 39 38 37 35 35 34 34 35 35 35 35 35 36 36 36 36 35 34
44 43 41 40 41 41 41 41 40 39 39 38 38 38 37 36 36 36 35 36 36 37 38 38 39 39 39 39 39 39 38 38 37 37 37 37 37 38 39 41 42 43 43 43 43 43 42 40 37 36 35 35 35 36 37 37 37 37 37 37 37 37 37
46 44 42 41 41 42 43 43 43 43 42 41 41 40 40 39 39 38 38 38 38 39 40 41 41 41 41 41 41 41 41 41 40 39 39 40 40 40 40 41 42 43 44 44 44 44 44 42 40 38 37 36 36 37 38 39 38 38 38 38 39 39 38
50 49 48 46 43 42 42 43 45 46 46 46 45 45 45 45 44 42 41 41 41 42 42 43 43 43 43 43 43 43 42 42 42 41 41 41 41 42 42 42 43 43 44 44 45 46 45 44 42 41 39 39 39 39 40 40 40 39 39 38 39 39 39
52 52 52 49 44 42 42 44 47 49 49 49 48 48 49 49 49 48 47 47 46 46 46 46 46 47 47 47 46 46 45 44 44 43 43 43 44 44 44 44 45 45 46 46 46 46 46 45 44 43 41 41 41 42 42 41 41 41 41 40 39 38 38
53 53 53 50 47 45 46 48 50 52 52 51 50 49 49 49 50 51 51 51 51 51 52 52 52 51 51 50 50 49 49 49 49 48 48 48 48 48 48 48 47 47 48 48 47 47 46 45 44 43 43 43 43 44 44 43 43 43 43 43 42 41 41
54 55 55 54 51 50 52 54 54 55 54 52 50 49 49 49 50 51 52 53 53 53 54 55 56 56 56 56 55 55 55 55 55 55 55 54 53 52 51 51 51 51 51 50 50 49 48 47 46 46 46 47 47 46 45 44 44 44 45 46 46 45 45
56 57 59 59 56 54 56 59 59 58 56 55 54 53 52 52 52 52 53 53 53 53 53 54 55 57 59 60 60 60 60 60 60 60 59 58 56 54 52 52 52 52 52 52 51 50 50 49 49 49 49 49 48 47 47 46 45 46 48 49 49 49 49
55 57 60 61 60 58 60 61 61 59 58 57 57 56 56 56 55 55 54 54 54 54 54 54 55 56 57 58 58 59 60 60 60 60 58 57 55 52 51 50 49 49 50 50 50 50 50 50 50 50 49 49 48 48 48 48 47 48 50 52 52 53 53
62 62 62 61 61 61 63 63 62 60 59 59 59 59 59 58 57 57 56 56 56 56 56 56 56 56 56 56 56 56 56 57 57 57 56 54 52 50 48 47 47 47 48 48 49 49 49 48 48 48 48 48 47 47 47 47 47 48 51 53 55 56 57
70 67 64 62 62 64 65 65 63 62 62 62 62 62 61 60 59 58 58 58 58 58 58 57 57 57 56 56 55 55 55 55 54 54 53 52 50 49 48 47 47 47 47 47 47 46 46 46 46 47 47 46 45 45 45 45 46 47 49 51 53 55 57
68 66 64 64 66 67 67 66 65 64 64 64 64 64 63 62 61 60 60 60 59 59 59 58 58 57 56 55 55 54 53 53 53 52 52 51 49 48 47 47 46 47 46 46 45 45 45 45 46 46 45 43 43 44 45 45 46 47 48 49 51 53 54
67 67 68 69 70 70 69 68 67 66 66 66 66 65 65 64 63 62 62 61 61 60 59 58 58 57 55 54 53 52 51 51 51 51 51 50 49 48 46 46 46 47 47 46 46 46 46 45 44 44 43 43 44 45 45 45 45 45 45 46 47 50 52
73 73 73 72 72 71 71 70 69 68 66 66 66 66 66 65 65 64 64 63 62 60 59 58 58 57 56 56 55 54 53 54 54 53 52 51 50 48 47 47 47 48 48 47 47 46 46 45 45 45 46 46 45 45 44 44 44 44 44 44 45 47 49
77 76 74 73 73 72 72 72 71 69 68 67 67 67 67 66 66 65 65 63 62 61 60 59 58 58 58 58 57 56 56 56 56 56 54 53 52 51 50 50 50 50 50 48 47 47 46 46 48 49 49 48 46 45 45 46 47 47 48 48 48 49 50
74 74 74 74 74 74 73 73 72 71 70 69 69 69 69 68 67 66 64 62 61 60 60 59 59 59 59 59 59 57 56 56 56 56 55 54 54 52 51 52 51 51 50 49 48 48 48 48 49 50 51 50 49 48 49 50 50 51 52 52 52 53 54
74 74 75 75 76 76 75 75 74 74 73 72 72 71 70 69 68 66 64 63 61 60 60 60 60 60 61 61 60 59 58 58 58 56 55 55 54 53 51 51 52 52 52 52 51 51 51 50 50 51 52 52 52 52 52 52 52 52 54 55 55 56 57
76 76 77 77 78 78 78 78 77 76 75 74 73 72 72 71 70 68 67 65 64 62 62 63 62 62 62 61 61 60 60 60 59 57 55 55 55 54 54 54 54 54 55 55 55 55 54 53 53 53 54 54 55 54 54 54 54 54 54 56 57 57 58
78 79 79 80 80 81 81 80 80 79 77 76 75 73 73 74 73 71 70 69 68 66 65 64 63 62 62 62 61 60 59 59 58 56 56 56 57 58 59 59 59 58 58 59 59 59 58 58 57 57 57 57 58 58 58 58 58 58 58 57 58 58 58
81 82 82 83 83 83 83 83 82 81 80 79 77 76 76 76 76 74 72 71 71 69 67 66 65 65 64 64 64 63 62 61 61 61 61 61 62 63 63 64 64 63 63 62 62 62 62 61 61 61 61 61 61 61 62 62 61 61 61 60 59 58 58
85 85 85 85 85 85 85 85 84 83 81 80 78 77 76 76 75 74 73 72 72 71 69 69 69 68 68 68 67 67 66 67 67 67 67 67 67 67 67 68 68 68 68 67 67 66 65 65 65 65 65 65 65 65 65 65 64 64 63 62 61 59 58
84 83 83 82 82 82 82 82 81 80 79 78 76 75 74 73 73 73 73 72 71 70 71 71 71 72 72 72 71 71 71 71 72 72 71 70 70 70 71 71 72 72 72 72 71 70 69 68 68 68 68 68 67 67 67 67 66 64 63 61 61 60 60
77 76 75 75 75 75 75 75 75 75 75 74 73 71 70 70 71 73 74 74 72 72 72 73 73 74 75 75 75 75 75 75 75 75 74 74 73 73 74 74 75 75 75 74 74 73 72 71 71 70 70 70 69 69 68 67 65 64 62 61 60 60 61
72 71 71 70 70 70 71 71 71 70 71 71 69 68 67 68 68 70 72 73 73 72 72 72 73 74 75 76 76 77 76 76 75 76 75 75 76 76 76 77 77 77 77 77 76 75 75 74 73 72 71 70 69 68 67 65 63 62 61 61 61 61 61
72 72 72 72 71 70 70 70 70 70 69 69 68 67 66 66 66 67 68 69 70 70 70 70 70 70 71 73 74 74 74 73 73 73 73 73 74 75 76 76 77 77 77 77 77 76 76 75 73 72 70 69 67 66 65 63 62 62 61 62 62 62 62
75 75 75 75 74 74 73 73 72 72 71 70 69 68 67 67 67 67 67 67 68 68 68 68 68 68 68 69 69 69 70 70 69 69 69 69 70 71 72 73 74 74 75 75 75 74 74 73 71 69 68 66 65 64 64 63 63 63 62 62 63 63 63
78 78 78 78 78 78 77 77 76 75 75 74 73 71 70 69 69 68 68 67 67 67 67 67 67 68 68 68 67 67 66 67 67 67 67 67 68 68 69 70 70 71 71 71 71 71 71 70 68 67 66 65 64 64 64 64 64 64 64 64 65 65 66
80 80 80 80 80 80 80 80 80 79 78 78 77 75 74 73 72 71 70 69 69 69 68 68 68 68 68 68 67 66 66 66 66 66 66 66 66 66 67 68 69 70 70 69 69 69 69 68 67 67 67 66 66 66 66 66 66 67 67 68 68 69 70
Wind_Direction
270 269 270 270 272 273 275 275 274 272 269 262 254 250 249 248 248 248 248 249 251 253 255 258 260 262 264 266 268 269 270 269 269 270 272 272 267 260 254 250 247 240 240 246 247 248 252 257 264 269 270 269 269 269 268 267 265 262 259 256 255 255 255
270 269 268 268 268 269 269 270 271 271 270 268 264 258 255 253 252 252 254 255 257 258 260 261 262 264 265 267 268 269 270 269 268 267 266 264 258 255 254 251 247 242 241 246 248 248 253 260 267 270 272 272 271 271 270 268 265 263 261 260 259 259 259
271 270 268 268 267 267 266 265 265 265 266 266 264 262 260 259 258 258 259 260 261 262 263 263 263 264 264 266 267 269 268 267 266 263 260 257 254 253 255 254 250 245 243 245 250 254 259 265 268 270 272 273 273 273 273 272 269 267 265 263 262 262 261
273 272 270 268 267 267 266 265 265 265 265 265 264 264 263 263 263 262 262 262 263 263 264 264 264 263 263 264 266 266 266 266 264 261 258 256 256 257 258 258 254 250 247 248 251 255 259 264 266 268 270 271 273 273 273 272 270 269 268 266 265 264 263
274 273 271 269 267 267 267 267 267 267 267 266 266 265 265 265 265 265 265 264 264 264 264 263 262 262 263 263 264 265 265 265 264 262 260 258 259 260 261 262 259 255 252 251 252 254 257 260 262 264 266 268 270 270 270 270 269 269 269 268 267 265 266
274 275 273 271 269 268 268 267 267 267 267 267 266 266 266 266 267 267 266 265 264 263 262 261 262 263 263 264 264 264 264 264 263 262 262 261 261 262 262 263 262 261 257 255 255 256 258 260 262 262 263 264 265 266 265 265 265 266 267 268 267 265 264
279 279 277 276 274 272 271 270 270 270 269 269 269 268 268 268 268 269 269 269 267 266 265 264 264 265 265 266 265 265 265 265 264 262 262 262 262 264 264 264 264 263 261 260 260 262 264 266 267 266 265 264 264 264 264 263 263 264 265 266 267 265 262
280 282 280 279 278 276 275 274 274 274 273 273 273 272 272 272 272 273 273 273 273 272 271 269 269 268 269 269 269 270 271 270 268 266 264 263 263 263 264 263 263 262 261 261 263 266 269 272 272 271 269 267 267 266 265 265 265 265 265 265 266 266 264
277 280 279 277 277 278 279 278 278 277 276 275 274 275 276 276 276 276 276 276 275 273 271 270 269 269 269 270 271 272 273 273 272 270 268 266 264 263 263 262 261 260 260 260 263 266 269 270 271 270 269 268 268 268 266 265 265 265 265 265 265 265 264
274 277 276 275 276 278 280 281 280 279 278 277 276 275 276 276 275 275 275 276 275 273 271 269 268 269 270 271 272 273 273 273 273 272 271 270 268 266 265 264 263 262 261 262 264 267 268 268 266 266 267 267 267 268 268 266 264 263 262 262 263 263 263
271 273 274 275 277 278 281 282 281 279 279 279 278 278 278 276 275 274 274 274 273 271 270 269 269 270 271 271 272 272 271 271 271 271 271 272 272 270 267 266 265 264 264 265 267 268 268 267 265 263 264 265 266 267 268 267 265 263 262 261 261 261 261
267 268 271 275 276 277 280 283 282 281 281 282 282 282 282 281 279 277 276 275 275 274 272 271 271 272 272 272 272 272 271 269 269 269 270 271 272 272 270 268 267 267 268 269 269 269 268 267 265 263 262 263 264 265 265 265 264 263 261 260 260 259 259
265 266 269 272 274 275 278 280 281 281 282 282 283 283 283 284 284 283 281 280 278 277 276 275 275 275 275 275 274 274 272 271 270 271 271 272 272 271 270 269 268 268 269 269 270 270 269 267 265 264 263 264 264 265 265 264 263 262 261 260 259 258 257
266 265 267 268 269 271 274 276 277 277 277 277 278 279 280 281 283 284 284 284 283 283 282 281 281 280 279 278 277 276 275 274 273 272 272 271 271 270 268 266 266 265 266 267 268 269 269 269 267 266 266 265 265 265 264 263 262 261 261 261 259 258 258
264 264 264 263 265 269 272 273 275 274 273 273 273 275 276 278 279 280 280 281 281 282 281 281 281 280 279 278 277 276 276 275 274 273 272 271 271 271 270 268 268 267 267 267 268 268 268 269 269 268 267 267 267 266 265 263 261 260 259 259 259 258 259
263 263 263 262 264 269 271 273 276 275 273 272 273 274 275 276 277 277 276 276 276 276 276 275 275 275 274 274 274 274 273 273 273 274 273 273 272 272 271 270 270 270 269 268 268 268 268 268 269 269 268 268 269 268 266 265 264 262 259 257 257 257 259
262 263 263 263 264 266 269 273 277 276 273 273 273 274 276 277 277 277 277 276 276 275 275 274 272 271 271 271 271 272 272 272 273 273 274 274 274 273 271 270 269 269 268 268 268 269 269 269 269 269 269 269 269 267 265 265 265 263 261 259 257 257 258
261 264 265 265 264 264 268 273 275 274 273 273 274 275 276 277 278 278 278 278 278 278 277 275 274 273 271 271 270 271 271 271 272 272 273 273 273 273 272 270 269 268 268 268 268 269 269 270 270 271 270 269 268 267 266 265 264 262 260 258 258 257 258
264 267 267 267 266 267 270 274 274 274 273 274 275 276 277 277 278 278 278 279 279 279 278 277 276 275 274 273 272 271 271 271 272 272 272 272 273 273 272 271 271 269 269 268 268 269 270 270 271 271 270 269 268 267 265 264 262 260 259 258 258 258 259
267 268 268 268 269 271 273 274 274 274 274 275 275 276 277 278 279 279 280 280 280 280 280 279 278 277 276 275 274 273 272 272 272 272 272 273 273 273 273 272 272 270 269 269 268 268 269 270 270 270 269 268 267 266 265 264 262 260 259 258 259 260 260
268 268 268 269 272 273 273 273 273 274 275 275 276 277 278 279 279 280 280 281 281 281 280 280 279 278 277 276 274 273 272 271 271 271 272 272 272 273 273 272 271 270 269 268 268 269 269 270 270 269 268 266 266 266 267 266 265 263 261 260 259 259 260
268 268 270 271 272 272 272 272 272 273 274 275 276 277 278 279 280 280 280 280 280 280 279 278 278 277 276 274 273 272 271 270 270 270 270 271 271 272 271 271 270 270 269 268 268 268 269 269 268 267 266 266 268 269 269 267 265 263 262 261 261 261 260
268 268 269 270 270 270 271 271 272 272 273 274 276 277 277 278 279 279 279 279 279 278 277 276 275 274 273 272 272 271 271 271 271 270 270 270 270 270 270 269 269 268 268 268 268 268 269 268 266 265 266 267 268 267 266 266 263 261 260 260 261 262 262
265 266 267 267 268 269 270 271 272 272 272 273 275 276 276 276 277 277 278 278 277 276 275 273 272 272 272 271 271 271 272 272 272 271 271 270 270 270 269 269 268 268 268 268 268 268 268 267 266 266 266 266 265 263 262 264 264 263 262 261 260 261 261
263 264 266 267 268 269 270 271 272 272 273 273 273 274 275 276 276 276 275 274 274 273 272 271 271 270 270 270 270 271 271 272 272 272 272 271 271 271 270 270 270 269 269 269 268 268 268 267 267 267 266 267 266 263 262 263 264 263 263 263 262 262 262
263 265 266 267 268 269 270 271 272 273 273 273 274 274 275 275 274 273 272 272 271 270 269 269 269 269 269 269 269 270 269 269 270 270 271 272 271 270 269 269 269 269 270 271 271 271 270 269 268 268 269 269 269 269 268 267 266 264 263 262 263 263 263
265 266 267 268 269 270 270 271 272 272 273 273 274 274 274 273 273 272 271 270 269 268 267 267 267 267 267 268 268 269 269 269 269 270 270 270 268 268 267 268 269 270 272 274 275 274 273 272 272 272 272 273 274 275 275 275 274 271 268 265 264 263 264
265 266 267 267 268 269 269 270 271 271 271 272 272 272 272 272 272 272 271 270 269 267 266 265 265 265 265 265 266 267 267 267 268 267 267 267 267 268 269 269 270 271 272 274 275 275 275 275 275 275 276 276 277 278 279 279 279 278 275 272 269 266 265
264 265 265 266 267 267 268 268 269 269 270 270 270 271 270 271 271 271 271 270 269 267 265 263 263 263 263 263 264 264 264 264 264 264 264 264 265 267 268 269 270 271 272 273 274 274 275 276 276 276 277 277 278 279 280 280 280 280 278 276 273 270 267
264 264 265 266 266 267 267 268 268 269 269 269 269 269 268 269 270 270 269 268 267 267 266 264 263 262 262 262 262 262 262 262 262 263 263 264 265 265 266 267 269 270 272 272 273 273 274 274 275 275 276 277 278 278 279 280 280 280 278 276 274 272 270
264 265 265 266 266 267 267 268 268 268 269 269 268 268 268 268 268 268 267 267 266 266 265 265 264 263 263 263 262 262 262 262 263 263 264 264 264 265 265 266 267 269 271 272 273 273 273 274 274 274 275 276 277 278 279 279 279 278 277 275 273 272 272
265 265 265 265 265 266 266 267 267 268 268 268 268 268 267 267 266 266 266 266 266 265 265 265 265 265 265 265 264 264 264 264 264 264 264 265 265 265 265 266 267 269 270 271 272 273 273 274 274 275 276 277 277 278 278 278 278 277 276 275 274 273 273
264 264 265 264 265 265 266 266 266 266 266 267 267 267 267 266 265 265 265 266 266 266 265 265 265 265 265 265 266 266 266 266 266 266 266 266 265 266 266 267 268 269 270 271 272 273 274 275 275 276 277 278 278 278 278 277 277 276 276 275 275 274 275
266 266 266 266 265 265 265 266 266 266 265 265 265 266 265 265 265 264 264 264 265 265 265 265 265 264 264 264 265 266 266 267 267 267 266 266 266 267 267 268 268 269 270 271 272 273 274 275 276 277 277 277 277 277 277 277 277 276 276 275 275 276 276
267 267 267 267 267 267 266 266 266 266 266 265 265 264 263 263 263 263 263 263 263 263 264 264 264 263 263 263 264 265 265 266 267 267 267 267 268 268 269 269 270 270 271 272 272 273 274 275 275 276 276 276 277 277 277 277 277 277 277 277 277 277 277
266 266 266 266 266 266 266 266 265 265 265 265 265 264 263 263 262 262 262 262 262 262 262 262 263 263 263 263 264 265 265 266 267 267 267 268 268 269 270 270 271 271 271 272 272 273 274 275 276 276 276 277 277 277 277 277 278 278 278 279 279 280 280
265 265 266 266 266 266 266 266 266 265 265 264 264 264 264 263 263 262 262 262 262 261 261 261 261 261 262 262 263 264 265 266 267 267 268 268 269 270 271 271 271 271 271 272 273 273 274 275 276 276 277 277 278 278 278 279 280 280 281 281 282 282 283
Height
10624 10625 10625 10625 10626 10627 10628 10629 10630 10632 10633 10634 10635 10636 10636 10637 10638 10639 10640 10641 10641 10642 10642 10643 10644 10645 10646 10646 10647 10647 10646 10645 10644 10642 10641 10641 10641 10641 10642 10642 10642 10642 10643 10643 10643 10642 10640 10639 10639 10639 10639 10638 10638 10637 10637 10637 10636 10637 10637 10638 10638 10639 10639
10619 10621 10621 10622 10623 10624 10624 10625 10626 10627 10628 10629 10630 10631 10632 10633 10634 10634 10635 10636 10636 10637 10637 10637 10638 10639 10639 10640 10640 10641 10641 10640 10640 10639 10637 10637 10637 10637 10638 10638 10638 10638 10638 10638 10638 10637 10635 10635 10635 10635 10634 10634 10633 10633 10632 10632 10631 10631 10632 10632 10633 10633 10633
10615 10616 10617 10618 10619 10619 10620 10620 10621 10622 10623 10624 10625 10626 10627 10628 10629 10630 10630 10631 10631 10631 10631 10632 10632 10633 10633 10634 10634 10635 10635 10635 10635 10634 10634 10633 10633 10634 10634 10634 10634 10634 10634 10633 10633 10632 10631 10631 10631 10631 10630 10630 10629 10628 10627 10627 10626 10626 10627 10627 10627 10627 10627
10610 10612 10613 10614 10615 10615 10616 10616 10617 10618 10619 10619 10620 10621 10622 10623 10624 10624 10625 10625 10626 10626 10626 10626 10627 10627 10628 10628 10629 10629 10629 10630 10630 10630 10630 10629 10629 10629 10629 10630 10630 10629 10629 10629 10628 10628 10628 10627 10627 10626 10626 10625 10624 10623 10622 10622 10622 10622 10622 10622 10622 10622 10622
10605 10607 10609 10610 10611 10611 10612 10612 10612 10613 10614 10615 10616 10616 10617 10618 10618 10619 10620 10620 10620 10620 10621 10621 10621 10622 10622 10623 10623 10623 10623 10624 10625 10625 10625 10625 10625 10625 10625 10625 10625 10625 10624 10624 10623 10623 10623 10622 10621 10621 10620 10620 10619 10618 10618 10618 10617 10617 10617 10618 10618 10618 10617
10601 10603 10604 10606 10607 10607 10608 10608 10608 10609 10610 10611 10612 10612 10613 10613 10613 10614 10614 10615 10615 10615 10616 10616 10616 10616 10616 10617 10617 10617 10618 10618 10619 10620 10620 10620 10620 10620 10620 10620 10620 10620 10620 10619 10619 10618 10618 10617 10616 10615 10615 10614 10614 10614 10613 10613 10613 10613 10613 10613 10613 10613 10613
10598 10599 10600 10602 10603 10604 10604 10604 10605 10605 10606 10607 10607 10608 10608 10608 10609 10609 10609 10610 10610 10610 10611 10611 10611 10611 10611 10612 10612 10612 10612 10613 10613 10614 10614 10615 10615 10615 10615 10615 10615 10615 10615 10615 10615 10614 10613 10613 10612 10611 10610 10610 10609 10609 10609 10609 10609 10608 10608 10609 10609 10609 10609
10594 10595 10596 10598 10599 10600 10601 10601 10601 10601 10602 10602 10603 10603 10603 10604 10604 10604 10605 10605 10605 10606 10606 10606 10607 10607 10607 10607 10607 10607 10607 10607 10608 10608 10608 10609 10609 10610 10610 10610 10610 10610 10610 10610 10610 10610 10609 10609 10608 10607 10606 10606 10605 10605 10604 10604 10604 10604 10604 10604 10604 10604 10605
10590 10592 10593 10593 10594 10596 10597 10597 10596 10597 10598 10598 10599 10599 10599 10599 10600 10600 10600 10601 10601 10602 10602 10602 10603 10602 10602 10602 10602 10602 10602 10602 10602 10603 10603 10603 10604 10604 10604 10605 10605 10605 10605 10605 10605 10605 10604 10604 10603 10603 10602 10601 10601 10600 10600 10599 10599 10599 10599 10600 10600 10600 10600
10585 10587 10588 10589 10590 10591 10591 10592 10592 10592 10593 10594 10595 10595 10596 10596 10596 10596 10596 10597 10597 10598 10598 10598 10598 10598 10598 10598 10598 10597 10597 10597 10597 10597 10598 10598 10598 10599 10599 10599 10600 10600 10600 10600 10600 10600 10599 10599 10599 10598 10597 10597 10596 10596 10595 10595 10594 10594 10594 10595 10595 10596 10596
10580 10581 10583 10584 10584 10585 10586 10586 10587 10587 10587 10588 10589 10590 10591 10591 10592 10592 10593 10593 10593 10593 10593 10593 10594 10594 10593 10593 10593 10593 10592 10592 10592 10592 10592 10593 10593 10593 10594 10594 10594 10595 10595 10595 10595 10594 10594 10594 10593 10593 10592 10592 10592 10591 10590 10590 10590 10590 10590 10590 10591 10591 10591
10576 10577 10578 10579 10579 10580 10580 10580 10581 10581 10581 10581 10582 10583 10584 10585 10586 10587 10588 10588 10588 10588 10588 10588 10588 10588 10588 10588 10588 10587 10587 10587 10587 10587 10588 10588 10588 10588 10588 10589 10589 10589 10589 10589 10589 10588 10588 10588 10587 10587 10587 10586 10586 10586 10585 10585 10585 10585 10585 10585 10586 10586 10586
10572 10573 10573 10574 10574 10574 10575 10575 10575 10575 10575 10574 10575 10575 10576 10577 10578 10580 10581 10581 10582 10582 10582 10582 10582 10582 10582 10582 10582 10581 10582 10582 10582 10582 10582 10582 10582 10582 10583 10583 10583 10583 10583 10583 10582 10582 10582 10581 10581 10581 10581 10580 10580 10580 10579 10579 10579 10580 10580 10580 10580 10580 10581
10567 10568 10568 10569 10569 10569 10569 10570 10570 10570 10570 10569 10570 10570 10570 10570 10571 10572 10573 10573 10573 10574 10574 10574 10574 10574 10574 10574 10574 10574 10575 10575 10576 10576 10575 10575 10575 10576 10576 10576 10576 10576 10576 10576 10576 10575 10575 10575 10574 10575 10574 10574 10574 10574 10573 10574 10574 10574 10575 10575 10575 10575 10575
10562 10563 10563 10563 10563 10563 10563 10564 10564 10565 10565 10565 10565 10566 10566 10566 10566 10566 10566 10567 10567 10567 10566 10566 10566 10566 10566 10566 10566 10567 10567 10568 10568 10568 10568 10568 10569 10569 10569 10569 10570 10570 10570 10569 10569 10569 10568 10568 10568 10568 10568 10568 10567 10567 10567 10568 10568 10568 10569 10569 10570 10570 10570
10556 10557 10558 10558 10558 10557 10557 10558 10558 10559 10559 10559 10560 10561 10561 10561 10561 10561 10560 10561 10561 10561 10561 10560 10560 10559 10558 10558 10559 10559 10559 10559 10559 10560 10560 10561 10562 10562 10563 10563 10563 10563 10563 10562 10562 10562 10562 10562 10561 10561 10562 10561 10561 10560 10560 10561 10561 10562 10562 10563 10563 10563 10564
10550 10550 10551 10552 10552 10552 10551 10551 10551 10552 10552 10553 10554 10555 10555 10555 10555 10555 10554 10554 10554 10554 10554 10554 10553 10552 10551 10551 10551 10552 10551 10551 10551 10551 10552 10553 10554 10555 10556 10556 10556 10555 10555 10555 10555 10555 10555 10555 10554 10554 10554 10554 10554 10553 10553 10554 10554 10555 10555 10555 10556 10556 10556
10543 10544 10544 10545 10546 10546 10545 10545 10545 10546 10546 10546 10546 10547 10548 10548 10548 10548 10548 10547 10547 10546 10546 10545 10545 10544 10544 10544 10544 10544 10544 10543 10543 10543 10544 10545 10546 10547 10547 10548 10548 10548 10548 10548 10548 10548 10548 10547 10547 10547 10547 10547 10547 10546 10546 10547 10547 10547 10547 10548 10548 10547 10547
10536 10537 10538 10538 10539 10539 10538 10538 10538 10539 10539 10539 10538 10539 10540 10540 10540 10540 10540 10539 10539 10538 10537 10537 10537 10537 10537 10537 10537 10537 10537 10536 10536 10536 10536 10537 10538 10538 10539 10539 10540 10540 10540 10540 10540 10540 10540 10540 10540 10539 10539 10539 10539 10539 10539 10539 10539 10539 10539 10539 10539 10539 10539
10529 10530 10531 10531 10531 10531 10531 10531 10531 10531 10531 10531 10531 10531 10532 10532 10532 10532 10531 10531 10530 10529 10529 10528 10528 10528 10529 10529 10529 10530 10529 10529 10529 10529 10529 10530 10531 10531 10531 10532 10532 10532 10532 10532 10532 10532 10532 10532 10532 10531 10531 10532 10531 10531 10531 10531 10531 10531 10531 10532 10532 10532 10532
10522 10522 10523 10523 10523 10523 10523 10524 10524 10523 10523 10522 10522 10523 10523 10524 10524 10524 10523 10522 10522 10521 10521 10520 10520 10520 10521 10521 10521 10522 10522 10521 10521 10522 10522 10523 10524 10525 10525 10525 10525 10525 10525 10525 10525 10525 10525 10525 10524 10524 10524 10525 10524 10523 10524 10524 10524 10524 10524 10524 10525 10525 10525
10515 10515 10515 10515 10515 10515 10515 10516 10516 10516 10516 10515 10515 10515 10516 10516 10516 10516 10516 10515 10514 10514 10514 10513 10512 10513 10513 10513 10513 10513 10513 10514 10514 10515 10515 10516 10517 10518 10518 10518 10518 10518 10518 10518 10518 10518 10518 10517 10517 10517 10517 10517 10517 10517 10517 10517 10517 10517 10517 10517 10517 10517 10517
10507 10507 10507 10508 10507 10507 10507 10507 10508 10509 10509 10508 10507 10507 10508 10508 10508 10508 10507 10507 10507 10507 10507 10507 10506 10506 10506 10505 10505 10505 10505 10505 10506 10507 10508 10509 10510 10512 10512 10511 10511 10511 10511 10511 10511 10511 10511 10510 10510 10510 10510 10510 10510 10510 10509 10509 10509 10509 10509 10510 10509 10509 10509
10500 10500 10500 10500 10499 10499 10498 10498 10499 10500 10501 10501 10500 10499 10499 10500 10501 10501 10500 10500 10499 10499 10500 10499 10499 10499 10498 10498 10498 10498 10498 10497 10497 10498 10500 10502 10503 10504 10505 10504 10504 10503 10504 10504 10504 10504 10504 10504 10503 10502 10502 10502 10503 10503 10502 10502 10502 10502 10502 10501 10501 10500 10500
10492 10492 10492 10491 10491 10490 10490 10489 10489 10490 10492 10492 10492 10491 10491 10492 10492 10492 10492 10492 10492 10492 10492 10492 10492 10492 10491 10491 10491 10491 10491 10490 10489 10490 10492 10493 10494 10496 10496 10496 10496 10496 10496 10496 10497 10497 10497 10497 10496 10495 10494 10495 10495 10496 10495 10495 10495 10494 10494 10493 10493 10492 10491
10485 10484 10483 10482 10481 10481 10481 10481 10481 10482 10482 10483 10482 10482 10483 10483 10483 10482 10483 10484 10484 10484 10484 10484 10484 10484 10483 10483 10483 10484 10484 10483 10482 10484 10485 10486 10486 10487 10488 10488 10488 10488 10488 10488 10488 10488 10488 10488 10488 10487 10487 10487 10487 10487 10487 10487 10486 10486 10485 10485 10484 10484 10483
10475 10475 10475 10473 10472 10472 10472 10472 10472 10473 10474 10474 10474 10474 10473 10473 10473 10473 10473 10475 10476 10476 10476 10475 10475 10475 10475 10475 10475 10475 10475 10474 10476 10477 10478 10477 10478 10478 10478 10479 10479 10479 10479 10479 10479 10479 10479 10479 10479 10479 10479 10478 10478 10477 10477 10477 10476 10476 10476 10476 10476 10476 10476
10464 10465 10465 10464 10463 10462 10462 10462 10462 10463 10464 10465 10466 10466 10464 10462 10463 10464 10465 10465 10467 10467 10467 10467 10467 10467 10466 10466 10467 10467 10466 10467 10468 10469 10469 10469 10469 10469 10469 10470 10470 10470 10470 10470 10469 10470 10469 10470 10470 10470 10470 10469 10469 10468 10468 10467 10467 10466 10467 10467 10467 10468 10468
10453 10454 10454 10453 10453 10452 10452 10451 10452 10453 10454 10455 10456 10457 10455 10453 10453 10455 10456 10456 10456 10457 10458 10458 10457 10457 10457 10458 10458 10459 10459 10459 10459 10459 10460 10460 10461 10461 10461 10461 10461 10461 10461 10461 10461 10461 10460 10461 10461 10460 10460 10460 10460 10460 10459 10459 10458 10458 10458 10458 10458 10459 10459
10442 10442 10443 10443 10442 10442 10441 10441 10442 10443 10443 10445 10446 10446 10446 10445 10445 10445 10445 10445 10446 10447 10448 10448 10448 10448 10448 10448 10449 10450 10450 10450 10450 10450 10451 10452 10452 10452 10452 10452 10451 10451 10451 10452 10452 10452 10452 10452 10451 10451 10451 10451 10451 10451 10451 10450 10450 10450 10449 10449 10449 10449 10449
10431 10432 10432 10432 10432 10431 10430 10430 10431 10432 10432 10433 10434 10435 10436 10437 10436 10435 10434 10434 10436 10437 10437 10437 10437 10437 10438 10438 10439 10440 10440 10440 10440 10441 10442 10443 10443 10443 10443 10443 10442 10442 10442 10442 10442 10443 10443 10442 10442 10442 10442 10442 10442 10442 10442 10442 10442 10441 10441 10441 10440 10440 10440
10421 10421 10422 10422 10422 10421 10420 10420 10420 10421 10421 10422 10423 10425 10426 10427 10426 10425 10424 10423 10425 10426 10427 10427 10427 10427 10428 10428 10428 10429 10429 10430 10431 10431 10432 10433 10433 10434 10433 10433 10433 10433 10433 10432 10432 10433 10433 10433 10432 10432 10432 10432 10433 10433 10432 10433 10433 10432 10432 10432 10432 10431 10430
10411 10410 10411 10411 10412 10411 10410 10410 10410 10411 10411 10411 10413 10415 10416 10416 10416 10415 10414 10414 10414 10415 10416 10418 10418 10418 10418 10418 10417 10418 10419 10420 10421 10421 10422 10423 10423 10424 10424 10423 10424 10423 10423 10422 10422 10422 10423 10423 10422 10422 10422 10423 10423 10423 10423 10423 10423 10423 10423 10423 10422 10422 10421
10400 10400 10399 10400 10401 10401 10401 10400 10400 10401 10401 10402 10403 10405 10406 10406 10406 10406 10406 10406 10405 10406 10406 10408 10408 10409 10409 10408 10408 10408 10409 10409 10410 10411 10412 10413 10413 10414 10413 10413 10413 10413 10413 10412 10412 10412 10412 10412 10413 10413 10413 10413 10413 10413 10413 10413 10413 10414 10414 10413 10413 10412 10411
10388 10388 10388 10388 10389 10390 10391 10391 10390 10391 10391 10392 10393 10395 10396 10397 10397 10397 10397 10397 10398 10398 10398 10398 10399 10399 10399 10399 10399 10399 10400 10400 10401 10402 10403 10404 10404 10404 10404 10403 10403 10403 10403 10403 10403 10402 10402 10403 10404 10404 10404 10404 10404 10404 10404 10404 10404 10404 10404 10403 10402 10402 10401
10374 10375 10376 10376 10377 10377 10378 10379 10380 10380 10381 10381 10382 10383 10385 10387 10387 10387 10388 10388 10388 10389 10389 10389 10389 10389 10390 10390 10391 10391 10392 10392 10393 10393 10394 10394 10395 10395 10394 10394 10393 10393 10393 10393 10393 10393 10393 10394 10394 10395 10395 10395 10395 10395 10395 10395 10394 10394 10393 10392 10391 10390 10389
10362 10362 10362 10363 10364 10364 10365 10366 10367 10368 10369 10370 10371 10372 10374 10375 10376 10377 10378 10378 10378 10379 10380 10380 10380 10380 10380 10381 10382 10383 10384 10384 10384 10384 10385 10386 10386 10386 10386 10384 10383 10383 10383 10384 10384 10384 10384 10385 10385 10385 10385 10385 10385 10385 10384 10384 10384 10383 10382 10381 10380 10379 10378